Chester, CT

10:51 PM EST on December 11, 2019 (GMT -0500)
Chester

Weather History for KSNC - November, 2019

Change the Weather History Date:

Wednesday, November 13, 2019

  Actual Average (KHVN) Record (KHVN)
Temperature  
Mean Temperature 24 °F -  
Max Temperature 30 °F 49 °F 66 °F (2010)
Min Temperature 19 °F 35 °F 27 °F (1981)
Degree Days  
Heating Degree Days 40    
Moisture  
Dew Point 2 °F    
Average Humidity 41    
Maximum Humidity 63    
Minimum Humidity 25    
Precipitation  
Precipitation 0.00 in - - ()
Sea Level Pressure  
Sea Level Pressure 30.26 in    
Wind  
Wind Speed 9 mph ()    
Max Wind Speed 20 mph    
Max Gust Speed 32 mph    
Visibility 10.0 miles    
Events      
Averages and records for this station are not official NWS values.
T = Trace of Precipitation, MM = Missing Value Source: Averaged Metar Reports

Daily Weather History Graph

Daily Weather History Graph

Search for Another Location

Airport or City:

Astronomy

Nov. 13, 2019 Rise Set
Actual Time 6:35 AM EST 4:32 PM EST
Civil Twilight 6:06 AM EST 5:01 PM EST
Nautical Twilight 5:32 AM EST 5:35 PM EST
Astronomical Twilight 5:00 AM EST 6:07 PM EST
Moon 5:33 PM EST (11/13) 7:26 AM EST (11/13)
Length of Visible Light 10h 55m
Length of Day
9h 56m
Full, 99% of the Moon is Illuminated
Nov 13
Full
Nov 19
Last Quarter
Nov 26
New
Dec 4
First Quarter
Dec 12
Full

Hourly Weather History & Observations

Time (EST) Temp. Windchill Dew Point Humidity Pressure Visibility Wind Dir Wind Speed Gust Speed Precip Events Conditions
12:15 AM 23.0 °F 13.1 °F 5.0 °F 46% 30.07 in 10.0 mi NW 9.2 mph 20.7 mph N/A   Clear
12:35 AM 23.0 °F 13.1 °F 5.0 °F 46% 30.08 in 10.0 mi NW 9.2 mph 21.9 mph N/A   Clear
12:55 AM 21.2 °F 12.6 °F 5.0 °F 50% 30.08 in 10.0 mi NW 6.9 mph 13.8 mph N/A   Clear
1:15 AM 21.2 °F 11.7 °F 5.0 °F 50% 30.08 in 10.0 mi WNW 8.1 mph - N/A   Clear
1:35 AM 21.2 °F 10.1 °F 5.0 °F 50% 30.09 in 10.0 mi NW 10.4 mph 17.3 mph N/A   Clear
1:55 AM 21.2 °F 13.6 °F 5.0 °F 50% 30.09 in 10.0 mi NW 5.8 mph - N/A   Clear
2:15 AM 21.2 °F 13.6 °F 5.0 °F 50% 30.09 in 10.0 mi NW 5.8 mph 12.7 mph N/A   Clear
2:55 AM 21.2 °F 10.1 °F 5.0 °F 50% 30.10 in 10.0 mi NW 10.4 mph - N/A   Clear
3:35 AM 21.2 °F 8.9 °F 3.2 °F 46% 30.11 in 10.0 mi NW 12.7 mph 20.7 mph N/A   Clear
3:55 AM 21.2 °F 10.9 °F 3.2 °F 46% 30.12 in 10.0 mi NNW 9.2 mph 18.4 mph N/A   Clear
4:15 AM 19.4 °F 9.5 °F 3.2 °F 49% 30.12 in 10.0 mi NNW 8.1 mph 25.3 mph N/A   Clear
4:35 AM 19.4 °F 7.9 °F 3.2 °F 49% 30.13 in 10.0 mi NW 10.4 mph 18.4 mph N/A   Clear
4:55 AM 19.4 °F 7.9 °F 3.2 °F 49% 30.14 in 10.0 mi NW 10.4 mph 18.4 mph N/A   Clear
5:55 AM 19.4 °F 7.2 °F 3.2 °F 49% 30.16 in 10.0 mi NW 11.5 mph 24.2 mph N/A   Clear
6:15 AM 19.4 °F 8.6 °F 3.2 °F 49% 30.17 in 10.0 mi NW 9.2 mph 18.4 mph N/A   Clear
6:35 AM 19.4 °F 7.9 °F 3.2 °F 49% 30.17 in 10.0 mi NW 10.4 mph 21.9 mph N/A   Clear
6:55 AM 19.4 °F 8.6 °F 3.2 °F 49% 30.18 in 10.0 mi NW 9.2 mph 21.9 mph N/A   Clear
7:15 AM 19.4 °F 7.9 °F 3.2 °F 49% 30.19 in 10.0 mi NNW 10.4 mph 18.4 mph N/A   Clear
7:35 AM 21.2 °F 11.7 °F 5.0 °F 50% 30.21 in 10.0 mi North 8.1 mph - N/A   Clear
7:55 AM 21.2 °F 10.1 °F 5.0 °F 50% 30.22 in 10.0 mi North 10.4 mph - N/A   Clear
8:15 AM 21.2 °F 9.5 °F 3.2 °F 46% 30.23 in 10.0 mi NNW 11.5 mph 18.4 mph N/A   Clear
8:35 AM 21.2 °F 6.4 °F 1.4 °F 42% 30.23 in 10.0 mi NNW 18.4 mph 26.5 mph N/A   Clear
8:55 AM 23.0 °F 11.1 °F 1.4 °F 39% 30.24 in 10.0 mi NNW 12.7 mph 24.2 mph N/A   Clear
9:15 AM 23.0 °F 11.7 °F -0.4 °F 36% 30.25 in 10.0 mi NW 11.5 mph 23.0 mph N/A   Clear
9:35 AM 23.0 °F 12.4 °F -0.4 °F 36% 30.25 in 10.0 mi NNW 10.4 mph 24.2 mph N/A   Clear
9:55 AM 23.0 °F 10.6 °F -2.2 °F 33% 30.26 in 10.0 mi NNW 13.8 mph 32.2 mph N/A   Clear
10:15 AM 24.8 °F 11.1 °F -2.2 °F 31% 30.26 in 10.0 mi NNW 18.4 mph 25.3 mph N/A   Clear
10:35 AM 24.8 °F 11.9 °F -2.2 °F 31% 30.26 in 10.0 mi NNW 16.1 mph 23.0 mph N/A   Clear
11:15 AM 26.6 °F 16.2 °F -0.4 °F 31% 30.26 in 10.0 mi NW 11.5 mph 21.9 mph N/A   Clear
11:35 AM 26.6 °F 16.8 °F -0.4 °F 31% 30.25 in 10.0 mi WNW 10.4 mph 23.0 mph N/A   Clear
11:55 AM 28.4 °F 17.5 °F -0.4 °F 29% 30.25 in 10.0 mi NNW 13.8 mph 24.2 mph N/A   Clear
12:15 PM 28.4 °F 17.5 °F -0.4 °F 29% 30.25 in 10.0 mi NNW 13.8 mph 23.0 mph N/A   Clear
12:35 PM 28.4 °F 19.1 °F -0.4 °F 29% 30.26 in 10.0 mi NNW 10.4 mph 20.7 mph N/A   Clear
12:55 PM 28.4 °F 16.2 °F -0.4 °F 29% 30.26 in 10.0 mi NNW 17.3 mph 23.0 mph N/A   Clear
1:15 PM 30.2 °F 19.8 °F -0.4 °F 27% 30.27 in 10.0 mi NNW 13.8 mph 21.9 mph N/A   Clear
1:35 PM 30.2 °F 22.6 °F -0.4 °F 27% 30.27 in 10.0 mi NW 8.1 mph 23.0 mph N/A   Clear
1:55 PM 30.2 °F 20.8 °F -0.4 °F 27% 30.28 in 10.0 mi NW 11.5 mph 23.0 mph N/A   Clear
2:15 PM 30.2 °F 19.3 °F -0.4 °F 27% 30.29 in 10.0 mi NW 15.0 mph 23.0 mph N/A   Clear
2:35 PM 30.2 °F 19.3 °F -0.4 °F 27% 30.29 in 10.0 mi NW 15.0 mph 23.0 mph N/A   Clear
2:55 PM 30.2 °F 18.9 °F -2.2 °F 25% 30.30 in 10.0 mi NNW 16.1 mph 26.5 mph N/A   Clear
3:15 PM 30.2 °F 17.8 °F -2.2 °F 25% 30.29 in 10.0 mi NW 19.6 mph 28.8 mph N/A   Clear
3:35 PM 28.4 °F 18.0 °F -2.2 °F 27% 30.31 in 10.0 mi NW 12.7 mph 21.9 mph N/A   Clear
3:55 PM 28.4 °F 18.0 °F -0.4 °F 29% 30.31 in 10.0 mi NNW 12.7 mph 19.6 mph N/A   Clear
4:15 PM 26.6 °F 16.2 °F -0.4 °F 31% 30.31 in 10.0 mi NNW 11.5 mph 17.3 mph N/A   Clear
4:35 PM 26.6 °F 18.2 °F -0.4 °F 31% 30.32 in 10.0 mi NW 8.1 mph - N/A   Clear
4:55 PM 24.8 °F 16.1 °F 1.4 °F 36% 30.33 in 10.0 mi NW 8.1 mph 15.0 mph N/A   Clear
5:15 PM 24.8 °F 14.6 °F 1.4 °F 36% 30.34 in 10.0 mi NW 10.4 mph - N/A   Clear
5:35 PM 24.8 °F 17.9 °F 1.4 °F 36% 30.34 in 10.0 mi NW 5.8 mph - N/A   Clear
5:55 PM 24.8 °F 17.9 °F 1.4 °F 36% 30.35 in 10.0 mi Variable 5.8 mph - N/A   Clear
6:15 PM 23.0 °F 17.0 °F 1.4 °F 39% 30.37 in 10.0 mi NW 4.6 mph - N/A   Clear
6:35 PM 23.0 °F 13.9 °F 3.2 °F 43% 30.39 in 10.0 mi NW 8.1 mph - N/A   Clear
6:55 PM 23.0 °F 13.9 °F 3.2 °F 43% 30.39 in 10.0 mi NW 8.1 mph - N/A   Clear
7:15 PM 23.0 °F - 3.2 °F 43% 30.40 in 10.0 mi Calm Calm - N/A   Clear
7:35 PM 23.0 °F 15.8 °F 3.2 °F 43% 30.39 in 10.0 mi NW 5.8 mph - N/A   Clear
7:55 PM 23.0 °F - 3.2 °F 43% 30.41 in 10.0 mi Calm Calm - N/A   Clear
8:15 PM 23.0 °F 17.0 °F 3.2 °F 43% 30.42 in 10.0 mi NW 4.6 mph - N/A   Clear
8:35 PM 21.2 °F - 5.0 °F 50% 30.42 in 10.0 mi Calm Calm - N/A   Clear
9:15 PM 21.2 °F - 5.0 °F 50% 30.41 in 10.0 mi Calm Calm - N/A   Clear
9:55 PM 19.4 °F - 6.8 °F 58% 30.43 in 10.0 mi Calm Calm - N/A   Clear
10:15 PM 19.4 °F - 6.8 °F 58% 30.43 in 10.0 mi Calm Calm - N/A   Clear
10:55 PM 19.4 °F - 8.6 °F 63% 30.43 in 10.0 mi Calm Calm - N/A   Clear
11:15 PM 19.4 °F - 6.8 °F 58% 30.44 in 10.0 mi Calm Calm - N/A   Clear
11:35 PM 19.4 °F - 8.6 °F 63% 30.44 in 10.0 mi Calm Calm - N/A   Clear
11:55 PM 19.4 °F - 6.8 °F 58% 30.44 in 10.0 mi Calm Calm - N/A   Clear